C4984 Weather Reports


Display with metric or nautical units.
time (UTC)temp
F
wind
direction
speed
MPH
gust
MPH
rain 1hr
in
rain 24hr
in
rain mn
in
humidity
%
barometer
mb
20260901173040 94 175 0.0 3.0 0.00 0.00 0.00 53 1012.2
20260901172016 94 56 0.0 3.0 0.00 0.00 0.00 57 1012.2
20260901171031 94 172 1.0 3.0 0.00 0.00 0.00 57 1012.4
20260901170003 94 111 0.0 1.0 0.00 0.00 0.00 59 1012.4
20260901165012 93 195 0.0 2.0 0.00 0.00 0.00 59 1012.6
20260901163945 93 51 1.0 5.0 0.00 0.00 0.00 65 1012.7
20260901162932 93 224 0.0 1.0 0.00 0.00 0.00 60 1012.7
20260901161919 93 137 0.0 2.0 0.00 0.00 0.00 63 1012.8
20260901160932 93 131 0.0 2.0 0.00 0.00 0.00 65 1013.1
20260901155917 91 192 0.0 4.0 0.00 0.00 0.00 69 1013.1
20260901154939 91 340 0.0 4.0 0.00 0.00 0.00 67 1013.3
20260901154002 90 141 0.0 3.0 0.00 0.00 0.00 67 1013.4
20260901153015 90 90 0.0 3.0 0.00 0.00 0.00 69 1013.4
20260901151956 90 77 0.0 2.0 0.00 0.00 0.00 71 1013.6
20260901150931 89 197 0.0 2.0 0.00 0.00 0.00 72 1013.8
20260901144837 88 137 0.0 2.0 0.00 0.00 0.00 73 1013.8
20260901143827 87 115 0.0 2.0 0.00 0.00 0.00 74 1013.8
20260901141659 85 124 0.0 2.0 0.00 0.00 0.00 78 1013.8
20260901140724 84 112 0.0 2.0 0.00 0.00 0.00 80 1013.7
20260901134534 80 56 0.0 1.0 0.00 0.00 0.00 87 1013.6
20260901133513 79 44 0.0 2.0 0.00 0.00 0.00 89 1013.6
20260901132445 78 139 0.0 0.0 0.00 0.00 0.00 89 1013.6
20260901131434 78 181 0.0 2.0 0.00 0.00 0.00 90 1013.6
20260901130450 77 104 0.0 2.0 0.00 0.00 0.00 92 1013.5
20260901125441 76 117 0.0 0.0 0.00 0.00 0.00 93 1013.6
20260901124438 76 103 0.0 1.0 0.00 0.00 0.00 94 1013.6
20260901123502 75 115 0.0 1.0 0.00 0.00 0.00 95 1013.5
20260901122508 75 135 0.0 1.0 0.00 0.00 0.00 95 1013.5
20260901120409 74 7 0.0 2.0 0.00 0.00 0.00 96 1013.5
20260901115348 74 242 0.0 0.0 0.00 0.00 0.00 97 1013.0
20260901113246 73 134 0.0 0.0 0.00 0.00 0.00 97 1012.9
20260901112244 73 30 0.0 0.0 0.00 0.00 0.00 96 1012.8
20260901111241 73 30 0.0 0.0 0.00 0.00 0.00 96 1012.8
20260901110249 73 30 0.0 0.0 0.00 0.00 0.00 95 1012.8
20260901101854 73 30 0.0 0.0 0.00 0.00 0.00 95 1012.3
20260901100837 73 30 0.0 0.0 0.00 0.00 0.00 94 1012.4
20260901095813 73 30 0.0 0.0 0.00 0.00 0.00 94 1012.2
20260901094820 73 30 0.0 0.0 0.00 0.00 0.00 94 1012.2
20260901093836 74 30 0.0 0.0 0.00 0.00 0.00 95 1012.2
20260901092847 74 30 0.0 0.0 0.00 0.00 0.00 94 1012.2
20260901091841 74 30 0.0 0.0 0.00 0.00 0.00 94 1012.2
20260901090814 74 256 0.0 0.0 0.00 0.00 0.00 93 1012.3
20260901085816 74 256 0.0 0.0 0.00 0.00 0.00 93 1012.3
20260901084812 74 256 0.0 0.0 0.00 0.00 0.00 93 1012.3
20260901083817 74 256 0.0 0.0 0.00 0.00 0.00 93 1012.5
20260901081650 74 256 0.0 0.0 0.00 0.00 0.00 93 1012.7
20260901080646 74 256 0.0 0.0 0.00 0.00 0.00 92 1012.8
20260901075624 74 256 0.0 0.0 0.00 0.00 0.00 92 1012.8
20260901074609 74 256 0.0 0.0 0.00 0.00 0.00 91 1012.8
20260901073603 75 256 0.0 0.0 0.00 0.00 0.00 91 1012.8
20260901072552 75 256 0.0 0.0 0.00 0.00 0.00 90 1012.8
20260901070418 75 256 0.0 0.0 0.00 0.00 0.00 89 1013.0
20260901064215 76 256 0.0 0.0 0.00 0.00 0.00 89 1013.2
20260901063219 76 356 0.0 0.0 0.00 0.00 0.00 88 1013.2
20260901062219 76 356 0.0 0.0 0.00 0.00 0.00 88 1013.3
20260901061211 76 356 0.0 0.0 0.00 0.00 0.00 87 1013.4
20260901055050 76 356 0.0 0.0 0.00 0.00 0.00 87 1013.6
20260901052929 76 356 0.0 0.0 0.00 0.00 0.00 87 1013.5
20260901051859 76 356 0.0 0.0 0.00 0.00 0.00 87 1013.6
20260901050915 77 356 0.0 0.0 0.00 0.00 0.00 87 1013.5
20260901045901 77 356 0.0 0.0 0.00 0.00 0.00 86 1013.4
20260901044840 77 356 0.0 0.0 0.00 0.00 0.00 85 1013.4
20260901043904 77 356 0.0 0.0 0.00 0.00 0.00 85 1013.3
20260901042924 77 356 0.0 0.0 0.00 0.00 0.00 84 1013.3
20260901040734 78 356 0.0 0.0 0.00 0.00 0.00 82 1013.3
20260901035757 78 356 0.0 0.0 0.00 0.00 0.00 82 1013.3
20260901034742 78 356 0.0 0.0 0.00 0.00 0.00 83 1013.3
20260901033745 77 356 0.0 0.0 0.00 0.00 0.00 83 1013.3
20260901032750 77 356 0.0 0.0 0.00 0.00 0.00 82 1013.2
20260901031809 78 356 0.0 0.0 0.00 0.00 0.00 82 1013.2
20260901025622 78 356 0.0 0.0 0.00 0.00 0.00 80 1013.4
20260901024604 78 356 0.0 0.0 0.00 0.00 0.00 79 1013.4
20260901023614 78 356 0.0 0.0 0.00 0.00 0.00 80 1013.2
20260901022618 78 356 0.0 0.0 0.00 0.00 0.00 81 1013.2
20260901021641 78 356 0.0 1.0 0.00 0.00 0.00 78 1013.2
20260901020616 78 356 0.0 0.0 0.00 0.00 0.00 82 1013.3
20260901015633 78 356 0.0 0.0 0.00 0.00 0.00 78 1013.3
20260901014636 79 356 0.0 0.0 0.00 0.00 0.00 79 1013.3
20260901013701 79 356 0.0 0.0 0.00 0.00 0.00 79 1013.3
20260901012631 79 356 0.0 0.0 0.00 0.00 0.00 78 1013.0
20260901010429 79 356 0.0 0.0 0.00 0.00 0.00 79 1012.9
20260901005413 80 356 0.0 0.0 0.00 0.00 0.00 81 1012.6
20260901003257 80 356 0.0 0.0 0.00 0.00 0.00 80 1012.4
20260901002245 81 356 0.0 0.0 0.00 0.00 0.00 79 1012.5
20260901001259 81 356 0.0 0.0 0.00 0.00 0.00 77 1012.5
20260901000315 83 319 0.0 0.0 0.00 0.00 0.00 75 1012.5
20260831235336 84 319 0.0 0.0 0.00 0.00 0.00 72 1012.4
20260831234329 85 319 0.0 0.0 0.00 0.00 0.00 70 1012.4
20260831233329 86 319 0.0 0.0 0.00 0.00 0.00 68 1012.4
20260831232255 87 319 0.0 0.0 0.00 0.00 0.00 65 1012.4
20260831230200 92 319 0.0 0.0 0.00 0.00 0.00 60 1012.3
20260831224036 94 319 0.0 0.0 0.00 0.00 0.00 57 1012.3
20260831223044 94 319 0.0 0.0 0.00 0.00 0.00 56 1012.3
20260831222015 95 319 0.0 0.0 0.00 0.00 0.00 57 1012.3
20260831221025 94 319 0.0 0.0 0.00 0.00 0.00 57 1012.3
20260831214933 93 319 0.0 0.0 0.00 0.00 0.00 57 1012.3
20260831213908 94 319 0.0 0.0 0.00 0.00 0.00 54 1012.4
20260831212833 94 319 0.0 0.0 0.00 0.00 0.00 51 1012.6
20260831211811 95 0 0.0 3.0 0.00 0.00 0.00 47 1012.6
20260831210749 95 196 0.0 3.0 0.00 0.00 0.00 45 1012.7
20260831205814 95 84 0.0 3.0 0.00 0.00 0.00 44 1012.8
20260831204755 94 315 0.0 3.0 0.00 0.00 0.00 49 1012.8
20260831203748 94 37 0.0 0.0 0.00 0.00 0.00 56 1012.9
20260831202736 93 37 0.0 2.0 0.00 0.00 0.00 53 1012.9
20260831201746 94 357 0.0 2.0 0.00 0.00 0.00 51 1012.9
20260831200731 94 171 0.0 1.0 0.00 0.00 0.00 48 1012.9
20260831194638 96 184 0.0 3.0 0.00 0.00 0.00 46 1013.1
20260831192541 95 101 0.0 5.0 0.00 0.00 0.00 45 1013.4
20260831191600 95 176 0.0 2.0 0.00 0.00 0.00 47 1013.4
20260831185501 93 89 0.0 5.0 0.00 0.00 0.00 51 1013.9
20260831184515 93 164 1.0 5.0 0.00 0.00 0.00 50 1013.9
20260831183450 93 52 1.0 0.0 0.00 0.00 0.00 50 1013.9
20260831181328 92 95 1.0 6.0 0.00 0.00 0.00 49 1014.2
20260831180336 92 141 1.0 6.0 0.00 0.00 0.00 53 1014.2
20260831175353 91 217 1.0 6.0 0.00 0.00 0.00 50 1014.2
20260831174407 91 150 0.0 4.0 0.00 0.00 0.00 57 1014.4